GFSNW_700_temp_021.txt.gz
Temp
-1 -1 -0 -1 -0 0 0 1 1 1 2 2 2 3 4 4 4 5 5 5 5 5 5 5 5 5 5 5 5 5 5 5 5 4 4 4 4 5 5 5 3 3 2 5
-1 -1 -1 -1 -0 -0 0 0 0 1 2 2 2 3 4 4 4 5 5 5 5 5 5 5 5 5 5 5 5 5 5 5 4 4 4 4 4 5 5 4 4 3 2 5
-1 -1 -1 -0 -1 -1 0 0 0 1 1 2 3 3 4 4 4 4 5 5 5 5 5 5 5 5 5 5 5 5 5 5 5 5 6 5 5 5 4 4 4 4 5 6
-2 -1 -1 -0 -0 -1 -0 -0 1 1 1 2 3 3 4 3 4 4 5 5 5 5 5 5 5 5 5 5 5 5 4 5 5 5 5 5 5 5 5 5 5 4 6 5
-2 -1 -1 -0 -0 -1 -1 -1 0 1 2 2 3 3 3 4 3 4 4 5 5 5 5 5 5 5 5 4 4 4 4 4 4 4 5 5 5 5 5 4 4 4 5 6
-2 -1 -1 -0 -0 -0 -1 -0 0 1 2 2 2 3 3 4 3 3 4 4 4 4 4 4 4 4 4 4 4 4 4 4 4 4 5 4 3 6 6 6 6 5 5 6
-2 -1 -0 -0 -0 -0 -0 -0 0 1 2 2 3 3 3 4 3 3 4 4 4 4 4 4 4 3 3 3 4 4 4 4 3 3 3 1 5 6 6 6 6 6 6 6
-1 -1 -0 -0 -0 -0 -0 -0 0 1 1 2 3 3 3 3 3 3 4 3 3 3 3 3 3 3 3 3 3 3 3 3 3 3 2 4 5 5 5 5 5 5 5 4
-1 -0 0 0 -0 -0 -0 -0 0 0 1 2 3 3 3 3 3 3 3 3 3 3 3 3 3 3 3 3 3 3 3 3 2 2 2 -0 4 5 5 4 3 4 4 3
-0 0 0 0 0 -0 -0 -1 -0 0 1 2 2 3 3 3 3 3 3 3 3 3 3 3 3 3 3 3 3 3 3 3 2 2 1 2 4 3 3 2 3 2 2 2
-0 0 0 0 0 -0 -0 -0 0 1 1 1 2 2 3 3 3 3 3 3 3 3 2 2 2 2 2 2 2 3 3 3 3 2 1 1 3 2 2 2 2 1 1 0
-0 0 0 0 -0 -0 -0 -1 -0 0 1 2 2 2 2 2 3 3 3 3 3 3 2 2 2 2 2 2 2 3 2 2 2 2 3 3 2 1 1 1 0 0 -0 -1
0 0 0 0 -0 -0 -0 -1 0 1 1 2 2 2 2 2 3 3 3 3 3 3 2 2 2 2 2 2 2 2 2 2 2 2 2 1 1 0 0 -0 -0 -0 -1 -1
0 0 0 0 -0 -0 -1 -1 0 1 1 2 2 2 2 2 2 2 2 2 2 2 2 2 1 1 1 1 1 1 1 1 1 1 1 0 -0 -0 -1 -1 -1 -1 -1 -1
-1 -0 -0 -0 -0 -1 -1 -1 0 1 1 2 2 2 2 2 2 2 2 2 2 2 1 1 1 1 1 0 0 0 1 1 0 -0 0 -1 -0 -0 -1 -1 -1 -1 -1 -1
-1 -1 -0 -0 -0 -0 -0 -0 -0 1 1 2 2 2 2 2 1 1 1 1 1 1 1 1 0 1 0 -1 -0 1 0 -0 -0 -0 -0 -0 -0 -1 -1 -1 -1 -1 -1 -2
-2 -1 -1 -1 -0 -0 -0 0 1 1 1 1 2 2 1 1 1 1 1 1 1 1 0 0 0 0 -0 -0 -1 0 0 0 -0 -1 -1 -1 -1 -2 -2 -2 -2 -3 -3 -4
-3 -3 -1 -1 -1 -0 0 1 1 1 1 1 1 1 1 1 1 1 1 1 1 1 0 0 0 -0 -0 -1 -1 -1 -0 -0 -1 -1 -2 -2 -2 -2 -2 -2 -3 -3 -5 -4
-2 -1 -1 -0 -0 0 0 0 1 1 1 0 1 1 1 1 1 1 1 1 0 0 -0 -0 -0 -1 -1 -1 -1 -1 -1 -1 -1 -2 -2 -2 -2 -3 -3 -3 -4 -5 -5 -5
-2 -1 -1 -1 -0 -0 0 -0 -0 -0 -0 0 0 1 1 1 1 1 0 -0 -0 -1 -0 -1 -1 -1 -1 -1 -1 -1 -1 -2 -2 -3 -3 -3 -3 -4 -4 -6 -6 -6 -6 -7
-3 -2 -2 -2 -1 -1 -0 -0 -1 -1 -1 -0 0 0 0 0 -0 -1 -1 -1 -1 -1 -1 -2 -4 -4 -3 -2 -2 -3 -3 -3 -4 -4 -4 -4 -5 -7 -7 -6 -7 -7 -8 -9
-3 -2 -2 -2 -2 -1 -2 -2 -1 -1 -1 -0 0 0 -0 -1 -1 -2 -2 -2 -2 -2 -3 -3 -5 -4 -4 -4 -4 -4 -4 -4 -5 -5 -5 -7 -8 -8 -8 -9 -9 -9 -9 -9
-3 -4 -3 -3 -3 -3 -3 -2 -2 -1 -1 -1 -0 -1 -2 -2 -2 -3 -3 -3 -4 -4 -5 -5 -5 -5 -6 -6 -6 -7 -7 -7 -8 -9 -9 -9 -8 -8 -9 -9 -10 -10 -10 -10
-3 -3 -3 -3 -3 -3 -2 -2 -2 -1 -2 -2 -2 -3 -3 -3 -4 -4 -4 -4 -5 -5 -6 -6 -6 -7 -7 -8 -8 -8 -8 -8 -8 -9 -9 -9 -10 -10 -10 -11 -11 -11 -11 -11
-4 -3 -3 -4 -3 -4 -3 -4 -4 -3 -4 -4 -4 -4 -5 -5 -5 -5 -5 -5 -6 -6 -6 -6 -7 -7 -8 -9 -9 -9 -9 -10 -10 -10 -10 -11 -11 -11 -11 -11 -11 -12 -12 -12
-5 -5 -5 -5 -5 -5 -5 -4 -5 -5 -5 -5 -5 -6 -6 -5 -6 -5 -6 -6 -6 -6 -6 -7 -8 -9 -9 -9 -9 -10 -10 -10 -10 -11 -11 -11 -11 -11 -11 -12 -12 -12 -12 -12
-6 -6 -6 -5 -5 -5 -5 -5 -5 -5 -5 -6 -6 -6 -6 -6 -6 -6 -7 -7 -7 -7 -8 -8 -9 -9 -9 -9 -9 -10 -11 -11 -12 -11 -12 -12 -12 -12 -12 -13 -13 -13 -13 -13

GFSNW_700_temp_024.txt.gz
Temp
-4 -1 -2 -1 -0 -1 -0 0 -0 1 1 1 1 2 3 4 4 5 4 5 5 5 4 5 5 5 5 5 5 5 5 6 5 5 5 5 5 5 5 6 5 3 3 7
-3 -2 -3 -1 -1 -1 -0 0 -1 1 1 0 1 2 3 4 4 5 5 5 5 5 5 5 5 5 5 5 5 5 5 5 5 4 4 4 4 5 5 5 5 4 4 7
-3 -2 -3 -2 -1 -1 -1 -0 -0 0 1 1 2 2 3 3 4 4 5 5 5 5 5 5 5 5 5 5 5 5 5 5 5 6 6 6 4 5 5 4 4 5 5 7
-4 -5 -3 -2 -2 -2 -1 -1 -0 0 0 1 2 2 3 3 4 4 5 5 5 5 5 5 5 5 5 5 5 5 4 4 5 5 5 5 5 5 5 4 5 4 6 5
-5 -5 -4 -2 -2 -2 -1 -1 -0 -0 1 1 1 2 3 3 4 4 5 5 5 5 5 5 5 5 5 5 5 4 4 4 5 5 5 5 5 5 5 4 4 4 5 5
-4 -5 -3 -2 -2 -1 -1 -1 -0 1 1 1 1 2 3 3 4 4 4 5 5 5 5 5 5 5 5 4 4 4 4 4 4 3 4 4 3 6 5 6 6 6 4 6
-5 -3 -2 -2 -1 -1 -1 -1 -0 0 1 1 2 2 3 3 4 4 4 4 4 4 4 4 4 4 4 4 4 4 4 4 3 3 3 2 5 6 6 5 6 5 6 5
-3 -2 -2 -2 -1 -1 -1 -1 -0 0 1 2 2 2 3 3 3 3 4 4 4 4 3 4 3 3 3 3 3 3 3 3 3 3 2 4 5 5 5 5 5 5 4 4
-3 -2 -2 -2 -1 -1 -1 -1 -0 0 1 2 2 2 3 3 3 3 3 4 3 3 3 3 3 3 3 3 3 3 3 3 2 2 2 2 4 5 4 4 3 3 3 3
-3 -2 -2 -1 -1 -1 -1 -1 -0 0 1 1 2 2 3 3 3 3 3 4 3 3 3 3 3 3 3 3 3 3 3 3 2 2 1 3 4 3 3 2 2 2 2 2
-3 -2 -1 -1 -1 -1 -1 -1 -0 0 0 1 2 2 3 3 3 3 3 3 3 3 3 2 3 2 2 2 3 3 3 3 2 2 1 2 3 2 2 1 1 1 1 0
-2 -1 -1 -1 -1 -1 -1 -1 -0 0 1 1 1 2 3 3 3 3 3 3 4 3 3 2 2 2 2 2 2 2 2 2 3 2 2 3 2 1 1 0 1 1 0 -0
-1 -1 -1 -0 -1 -0 -1 -1 -0 0 1 1 2 2 2 2 2 3 3 3 3 3 3 3 2 2 2 2 2 2 2 2 2 2 2 1 1 0 0 -0 -0 -0 -1 -0
-1 -0 -0 -0 -0 -1 -0 -0 -0 -1 1 1 1 2 2 2 2 2 3 3 3 3 3 2 2 2 2 1 2 1 1 1 1 1 1 0 0 -0 -0 -1 -1 -1 -1 -1
-0 -0 -0 -0 -0 -0 -1 -0 -0 -0 1 1 2 2 2 2 2 2 2 2 2 2 2 2 2 1 1 1 1 1 1 0 -0 0 -0 -0 -0 -0 -1 -1 -1 -1 -1 -2
-0 -0 -0 -0 -1 -1 -1 -1 -0 -0 0 1 1 2 1 2 2 2 2 2 2 2 2 1 1 1 1 -0 -0 0 1 0 -0 -0 -0 -0 -1 -1 -1 -1 -2 -2 -2 -2
-0 -0 -1 -1 -1 -1 -1 -1 -2 -1 0 1 1 1 1 1 1 1 1 1 1 1 1 1 1 1 0 -0 -1 -0 -0 -0 -0 -0 -1 -1 -1 -2 -2 -2 -2 -2 -2 -3
-1 -1 -1 -1 -1 -1 -2 -2 -1 -0 0 1 1 1 1 1 1 1 1 1 1 1 0 0 0 0 -0 -1 -0 -0 -0 -0 -1 -1 -2 -2 -2 -2 -2 -2 -3 -3 -3 -4
-2 -2 -1 -1 -2 -2 -1 -0 -0 0 0 1 1 1 2 1 1 1 1 1 0 0 0 0 -0 -1 -1 -0 -0 -1 -1 -1 -2 -2 -2 -2 -3 -3 -3 -4 -4 -5 -5 -6
-2 -2 -2 -2 -2 -1 -1 -1 -0 0 0 1 1 1 1 1 1 1 1 1 0 -0 0 -0 -1 -1 -1 -0 -0 -1 -1 -2 -3 -3 -3 -4 -4 -4 -5 -6 -7 -7 -8 -8
-3 -3 -3 -2 -1 -1 -1 -1 -1 -0 -0 0 1 1 1 1 1 0 -0 -0 -0 -1 -1 -2 -3 -3 -1 -1 -2 -2 -3 -4 -4 -4 -4 -4 -4 -5 -7 -8 -8 -9 -9 -9
-3 -2 -2 -2 -2 -1 -1 -1 -1 -0 -0 0 0 1 1 0 -0 -1 -1 -1 -2 -2 -2 -2 -5 -2 -2 -4 -5 -4 -5 -5 -5 -5 -5 -6 -7 -9 -9 -9 -9 -9 -9 -10
-3 -3 -3 -2 -3 -3 -2 -1 -1 -1 -0 0 1 0 -0 -1 -2 -2 -2 -2 -3 -4 -4 -5 -4 -3 -5 -6 -6 -6 -6 -6 -7 -8 -8 -9 -9 -9 -9 -9 -10 -10 -10 -10
-3 -3 -4 -3 -3 -3 -2 -1 -1 -1 -1 -1 -1 -1 -2 -2 -3 -3 -4 -4 -5 -5 -5 -5 -4 -6 -6 -7 -7 -8 -8 -9 -9 -9 -9 -9 -9 -10 -10 -11 -10 -11 -11 -11
-4 -3 -3 -3 -3 -2 -2 -2 -2 -2 -2 -2 -2 -3 -3 -3 -4 -4 -4 -5 -5 -5 -6 -5 -6 -6 -7 -8 -9 -9 -9 -9 -10 -10 -10 -10 -10 -11 -11 -11 -11 -11 -12 -12
-4 -4 -4 -4 -4 -4 -3 -3 -4 -4 -4 -4 -4 -5 -5 -5 -5 -5 -5 -6 -6 -6 -6 -6 -7 -7 -8 -9 -9 -9 -10 -10 -10 -10 -11 -11 -11 -11 -12 -12 -12 -12 -12 -13
-6 -6 -6 -6 -5 -5 -5 -5 -5 -5 -5 -5 -5 -5 -5 -6 -6 -6 -6 -6 -6 -7 -7 -7 -8 -9 -9 -10 -10 -10 -11 -11 -11 -12 -12 -12 -12 -12 -12 -13 -13 -13 -13 -13

GFSNW_700_temp_030.txt.gz
Temp
-3 -1 0 1 0 -2 -2 -1 -1 1 0 0 1 -0 2 4 5 6 6 7 8 7 8 8 8 8 8 7 7 7 7 7 7 7 7 7 7 7 8 7 7 7 7 7
-9 -8 -4 -1 -2 -3 -2 -1 -1 -1 0 0 0 0 1 3 4 6 5 6 7 7 7 8 7 8 7 6 7 6 7 6 7 7 7 7 7 7 7 7 7 6 5 7
-9 -9 -8 -6 -3 -4 -2 -2 -2 -1 0 0 -0 1 2 3 5 6 5 6 6 7 7 7 7 7 6 6 6 6 6 6 7 7 8 7 7 7 7 7 6 6 6 7
-8 -8 -8 -7 -5 -3 -3 -3 -1 -0 0 0 -0 1 2 3 4 5 6 6 6 6 6 7 6 6 6 6 5 5 5 5 6 7 7 6 6 7 7 7 7 6 6 7
-8 -8 -8 -7 -5 -3 -4 -3 -2 -1 -0 -0 0 2 2 4 5 5 5 6 6 6 6 6 6 6 5 5 5 5 5 5 5 5 6 6 5 6 6 7 7 7 7 7
-8 -8 -8 -8 -5 -3 -4 -2 -1 -0 0 1 1 2 2 4 5 5 5 5 6 6 6 6 5 5 5 5 5 5 4 5 4 4 4 5 5 6 6 6 6 7 7 7
-8 -8 -8 -8 -7 -4 -4 -3 -1 -1 -0 1 1 2 3 4 5 5 5 5 6 6 6 5 5 5 5 5 4 4 4 4 4 4 4 3 6 6 6 6 6 6 6 6
-8 -8 -7 -7 -6 -4 -4 -2 -1 -1 -1 2 1 2 3 4 5 5 5 5 5 6 5 5 5 4 4 4 4 4 3 3 3 3 3 4 5 6 5 5 5 5 4 4
-8 -8 -7 -8 -6 -5 -3 -1 -1 -1 -1 1 2 3 3 4 5 3 4 4 4 5 4 4 4 4 4 4 2 3 3 2 2 2 2 2 4 5 5 5 4 2 3 2
-9 -9 -7 -7 -6 -5 -3 -1 -1 -1 -0 1 2 3 3 4 4 2 4 4 4 4 4 4 3 4 4 4 3 2 2 2 2 2 2 3 4 3 4 3 2 2 2 2
-9 -9 -7 -7 -5 -3 -2 -0 -1 -1 -1 1 1 3 3 3 2 3 4 4 4 4 4 3 3 3 4 4 4 3 3 3 2 1 1 1 3 3 2 2 2 2 2 2
-8 -9 -6 -6 -4 -3 -2 -1 -1 0 1 0 2 2 3 3 2 3 3 4 4 4 4 3 3 3 3 3 3 3 3 3 2 3 3 2 2 2 1 1 2 1 1 0
-8 -7 -4 -5 -4 -2 -1 0 -1 0 -0 1 2 2 2 2 2 1 3 3 3 3 3 4 3 3 3 3 3 3 3 2 3 2 3 2 2 1 0 -1 0 1 0 -0
-5 -4 -4 -4 -2 -2 -2 -2 -0 0 1 1 1 1 2 2 2 2 2 3 3 3 4 4 3 3 3 3 3 2 2 2 2 1 2 2 1 0 -0 0 -0 -0 -0 -1
-5 -5 -3 -3 -2 -2 -1 -1 -1 -0 0 0 1 1 2 2 2 2 2 2 3 3 3 3 3 3 3 3 2 2 2 1 1 1 1 1 1 1 0 -0 -0 -0 -1 -1
-3 -3 -2 -2 -2 -2 -2 -1 -1 -0 0 0 1 1 1 2 2 2 2 2 2 2 3 3 3 3 3 2 2 2 1 2 1 1 1 0 0 0 0 0 -1 -1 -2 -2
-3 -3 -2 -2 -2 -2 -2 -1 -1 -1 -0 0 0 1 1 1 1 2 2 2 2 2 2 3 3 2 2 2 1 1 1 1 1 1 0 -0 -0 -0 0 -1 -1 -2 -2 -3
-3 -2 -2 -2 -2 -2 -2 -1 -1 -1 -1 -0 0 -1 0 1 1 1 1 1 2 2 2 2 2 2 2 1 1 1 1 1 1 0 -0 -0 -1 -2 -2 -2 -2 -3 -3 -3
-2 -2 -3 -2 -2 -2 -2 -2 -1 -1 -1 -2 -1 0 -1 0 1 1 1 1 1 2 1 1 1 1 1 1 1 1 1 0 0 0 -1 -1 -2 -2 -3 -3 -3 -4 -4 -4
-2 -2 -3 -2 -2 -2 -2 -2 -2 -1 -3 -2 0 1 1 1 1 0 0 0 1 0 1 1 0 1 1 1 1 1 0 -0 -1 -2 -2 -2 -3 -3 -4 -4 -4 -5 -5 -6
-3 -3 -3 -2 -3 -2 -3 -2 -3 -2 -2 -1 0 1 2 1 1 1 1 0 0 -0 0 0 0 0 1 1 1 0 -1 -1 -2 -2 -3 -3 -4 -4 -5 -5 -6 -6 -7 -8
-3 -2 -3 -3 -3 -3 -3 -2 -3 -3 -2 -0 0 1 1 1 1 0 -0 -0 0 -0 -1 -0 -2 1 1 0 0 -0 -1 -2 -3 -4 -4 -5 -5 -6 -6 -7 -7 -8 -8 -9
-2 -3 -3 -3 -3 -3 -2 -3 -3 -1 -0 0 0 1 1 0 0 -0 0 -0 -1 -2 -1 -2 -1 -0 -0 -0 -1 -2 -3 -4 -5 -5 -6 -6 -6 -7 -8 -8 -9 -9 -10 -10
-3 -3 -3 -3 -3 -3 -2 -2 -1 -0 -0 0 0 0 -0 0 -0 -1 -1 -1 -2 -4 -5 -3 -1 -1 -2 -3 -3 -5 -5 -6 -6 -7 -7 -8 -8 -9 -9 -10 -10 -10 -10 -11
-4 -4 -4 -3 -3 -3 -2 -2 -1 -1 -0 -0 -1 -1 -1 -1 -2 -2 -2 -2 -4 -5 -5 -4 -4 -4 -4 -5 -6 -6 -7 -7 -8 -8 -8 -9 -9 -10 -10 -10 -11 -11 -11 -11
-3 -4 -4 -4 -3 -3 -3 -2 -2 -2 -2 -2 -2 -2 -2 -2 -2 -3 -4 -5 -5 -5 -4 -5 -5 -5 -6 -7 -7 -7 -8 -8 -9 -9 -9 -10 -10 -11 -11 -11 -11 -11 -12 -12
-5 -5 -5 -5 -5 -5 -5 -4 -4 -4 -4 -4 -4 -4 -4 -4 -5 -5 -6 -6 -6 -6 -6 -6 -6 -7 -7 -7 -7 -8 -9 -9 -9 -10 -10 -11 -11 -11 -11 -12 -12 -12 -12 -13

GFSNW_700_temp_036.txt.gz
Temp
-10 -10 -4 -2 -1 -2 -1 -1 -2 -2 -1 -2 -1 -1 -2 -1 4 3 4 4 5 6 7 7 7 7 7 7 7 7 7 6 6 7 7 7 6 6 7 6 6 6 6 7
-11 -11 -9 -7 -5 -3 -2 -2 -4 -4 -2 -2 -2 -1 -3 0 4 3 3 4 5 6 7 7 7 7 7 7 7 7 6 6 6 6 6 6 6 6 7 7 7 7 3 6
-11 -11 -12 -10 -9 -8 -5 -7 -6 -4 -3 -0 -2 -1 -1 1 4 3 3 4 5 6 6 7 7 7 7 7 6 6 7 6 6 6 6 6 6 6 6 6 6 6 6 7
-11 -11 -12 -10 -8 -8 -8 -7 -5 -4 -3 -0 -3 -3 -2 1 2 3 4 4 4 5 6 6 7 7 6 7 6 6 6 6 6 6 6 6 6 6 6 6 6 6 7 7
-11 -12 -12 -10 -8 -7 -8 -6 -5 -5 -2 0 -1 -3 -2 0 2 3 4 3 4 5 5 6 6 7 7 6 6 6 6 6 6 6 6 6 5 6 6 6 6 6 6 6
-12 -12 -11 -10 -8 -7 -8 -6 -5 -4 -3 -1 -1 -0 -2 1 2 3 4 4 4 5 5 6 6 6 6 6 6 6 6 5 5 5 5 5 4 5 5 6 6 6 5 5
-12 -12 -11 -10 -8 -7 -8 -6 -6 -4 -3 -3 -0 -1 -3 2 2 3 5 4 4 5 5 6 6 6 6 6 6 5 5 4 4 4 4 -1 5 5 5 5 5 5 5 5
-12 -12 -11 -11 -9 -8 -8 -6 -5 -4 -4 -3 -2 -2 -1 1 2 2 4 4 4 4 5 5 5 5 5 5 5 5 5 5 4 3 3 4 4 4 4 5 4 4 4 4
-11 -11 -11 -10 -9 -8 -8 -7 -5 -5 -3 -3 -2 -2 -1 1 1 2 3 4 3 4 5 5 5 4 4 4 4 4 4 4 4 3 3 -2 4 5 5 5 4 4 3 3
-11 -11 -11 -10 -9 -8 -8 -6 -5 -4 -2 -3 -2 -1 1 -1 1 2 3 3 3 4 4 4 5 5 5 4 4 3 3 3 3 3 3 3 4 4 4 4 4 4 4 3
-11 -11 -11 -10 -9 -9 -8 -6 -5 -4 -3 -2 -2 -1 0 -0 1 2 3 2 2 3 4 4 4 5 4 4 4 4 4 3 2 2 2 2 3 3 3 3 4 3 3 3
-10 -11 -11 -10 -8 -9 -8 -6 -5 -3 -1 -2 -1 -1 0 1 1 1 2 3 3 3 3 4 4 5 4 4 3 3 3 3 3 3 3 3 3 2 3 3 3 3 2 2
-9 -9 -10 -9 -9 -8 -7 -6 -4 -3 -3 -2 -2 -1 -0 1 1 1 2 2 3 3 3 3 4 4 5 4 4 3 3 3 3 3 2 2 2 2 2 2 2 2 2 1
-9 -9 -8 -9 -9 -8 -7 -6 -5 -4 -4 -3 -1 -0 -0 1 2 1 2 3 3 3 2 3 4 5 5 5 4 4 3 3 3 2 2 2 1 1 1 1 1 1 1 0
-9 -9 -9 -8 -8 -8 -7 -5 -4 -4 -4 -3 -2 -1 -0 0 1 1 1 2 2 3 3 2 4 4 4 4 4 4 3 3 3 2 2 2 2 1 1 1 0 0 -0 -1
-9 -9 -9 -9 -9 -8 -7 -5 -5 -4 -3 -2 -1 -0 0 1 1 2 0 1 2 2 2 2 3 4 4 4 3 3 3 3 3 3 2 2 2 1 1 1 0 -0 -1 -1
-9 -10 -9 -9 -8 -7 -3 -4 -3 -3 -3 -2 -3 -2 -0 0 1 1 -0 0 1 2 1 1 2 3 3 3 3 3 3 3 2 2 2 1 1 1 1 0 -0 -0 -1 -1
-9 -9 -8 -9 -8 -6 -5 -5 -3 -3 -3 -3 -4 -1 -1 -0 -1 0 1 1 1 0 0 2 2 3 3 2 2 2 2 2 2 2 1 1 1 0 -0 -0 -1 -1 -2 -2
-9 -9 -8 -8 -6 -4 -3 -3 -3 -3 -3 -3 -2 -2 -1 -1 0 0 -0 -0 -1 0 0 2 2 2 2 2 2 2 2 2 2 1 1 1 0 -0 -1 -1 -2 -2 -3 -3
-8 -8 -7 -6 -3 -3 -4 -4 -3 -3 -4 -3 -2 -2 -2 -1 -0 0 0 -0 0 0 0 0 1 1 1 1 1 1 1 1 1 0 0 -0 -1 -1 -2 -2 -3 -4 -4 -5
-6 -5 -5 -4 -5 -4 -4 -3 -3 -2 -2 -1 -1 -1 0 0 0 1 1 0 0 0 0 0 0 0 1 1 1 1 1 0 -0 0 -0 -1 -1 -2 -3 -4 -5 -6 -6 -7
-4 -4 -4 -4 -4 -3 -3 -3 -1 -1 -1 -1 -0 -1 -1 -1 -1 -2 -2 -1 -1 -0 -1 -1 -1 0 0 1 0 -0 -1 -1 -1 -1 -2 -2 -3 -4 -4 -5 -6 -7 -8 -8
-3 -3 -3 -3 -3 -3 -3 -2 -1 -1 -1 -1 -1 -2 -1 -2 -2 -2 -1 -1 -1 -2 -1 -1 0 0 0 -0 0 -0 -1 -2 -3 -3 -3 -4 -5 -6 -7 -7 -8 -9 -9 -10
-3 -3 -3 -3 -3 -2 -2 -2 -1 -1 -1 -1 -2 -2 -2 -2 -2 -2 -2 -3 -2 -2 -2 -0 0 0 0 0 0 0 -2 -3 -4 -4 -5 -6 -7 -8 -8 -9 -9 -10 -11 -11
-2 -3 -3 -3 -3 -3 -3 -2 -2 -2 -2 -2 -2 -2 -2 -2 -3 -2 -2 -3 -4 -5 -3 -2 -2 -2 -2 -2 -2 -4 -5 -5 -6 -7 -7 -8 -8 -9 -9 -10 -11 -11 -11 -11
-3 -4 -5 -4 -5 -3 -2 -2 -2 -2 -3 -3 -3 -3 -3 -3 -3 -3 -4 -5 -6 -5 -4 -4 -4 -4 -4 -4 -5 -6 -7 -7 -8 -8 -8 -9 -9 -10 -10 -11 -12 -12 -12 -12
-6 -7 -6 -5 -5 -5 -5 -5 -4 -3 -3 -4 -3 -4 -4 -5 -5 -6 -6 -6 -6 -6 -5 -5 -5 -6 -6 -7 -8 -8 -8 -8 -9 -9 -9 -9 -10 -11 -11 -12 -12 -12 -12 -13

GFSNW_700_temp_039.txt.gz
Temp
-7 -10 -10 -9 -5 -3 -3 -2 -2 -1 -1 -2 -3 -1 -1 -1 2 2 2 3 4 5 5 6 6 6 6 6 6 6 6 6 6 6 6 6 5 6 6 6 5 5 5 6
-8 -9 -9 -11 -9 -6 -5 -3 -4 -4 -2 -2 -0 -1 -1 0 2 2 2 3 3 5 6 6 6 6 6 6 7 6 6 6 5 6 6 6 6 6 6 6 6 6 3 6
-9 -8 -8 -10 -11 -9 -8 -7 -7 -5 -4 -0 -0 -1 -2 -1 1 2 1 2 4 4 5 6 6 6 6 7 7 7 7 7 6 6 7 7 6 6 6 6 6 6 6 6
-9 -9 -9 -9 -11 -10 -8 -8 -7 -4 -5 -1 -2 -2 -1 -1 0 1 1 2 4 3 4 5 6 6 7 7 7 7 6 6 6 6 6 6 6 6 6 6 6 6 6 6
-9 -9 -10 -10 -10 -9 -8 -8 -7 -6 -4 -2 -2 -4 -4 -2 1 -0 2 2 4 4 4 5 6 6 6 7 6 6 6 6 6 6 6 6 6 6 6 5 5 6 6 6
-9 -10 -10 -10 -11 -8 -8 -8 -6 -6 -5 -3 -5 -0 -1 -0 -0 2 1 2 4 3 4 5 5 5 6 7 7 6 6 6 6 5 5 5 4 5 6 5 5 6 5 6
-10 -10 -11 -11 -11 -8 -8 -7 -6 -5 -5 -5 -2 -2 -4 -0 1 1 2 2 2 4 4 4 5 5 6 6 6 6 6 6 5 5 4 -1 5 5 5 5 5 5 5 6
-9 -10 -11 -11 -10 -9 -8 -7 -7 -5 -5 -4 -3 -3 -2 -2 0 0 1 3 3 3 3 2 4 5 5 5 5 5 5 5 4 4 3 4 4 4 4 5 5 5 5 5
-9 -10 -11 -11 -10 -8 -8 -8 -7 -6 -5 -4 -4 -3 -3 -2 -0 -0 1 2 1 2 2 2 4 4 5 4 4 4 5 5 4 3 3 -2 4 4 4 4 4 4 4 4
-10 -11 -11 -11 -11 -9 -8 -8 -8 -6 -5 -5 -4 -4 -3 -1 0 2 2 2 1 1 2 2 4 5 5 4 4 4 4 4 3 4 3 3 4 4 4 3 4 4 4 3
-11 -11 -12 -11 -11 -10 -9 -8 -7 -6 -6 -4 -4 -3 -3 -0 0 1 1 -0 1 1 1 2 4 4 4 4 4 4 4 3 3 3 2 2 3 3 3 4 4 4 3 3
-12 -12 -12 -11 -10 -10 -9 -8 -7 -7 -6 -4 -4 -3 -3 -0 -1 -0 0 1 1 2 2 2 3 4 4 4 4 4 4 4 4 3 3 3 3 3 3 3 3 3 3 2
-11 -11 -11 -10 -10 -9 -9 -9 -7 -6 -4 -3 -3 -2 -2 -1 -1 -1 -1 0 1 2 2 2 3 4 4 4 4 4 4 4 3 3 3 3 3 3 3 3 3 2 2 2
-11 -10 -11 -11 -11 -10 -9 -9 -8 -7 -5 -5 -3 -2 -1 -2 -2 -1 -1 -0 1 1 2 2 3 3 4 4 5 4 4 4 3 3 3 3 3 2 2 2 2 2 1 1
-10 -11 -11 -11 -11 -11 -9 -9 -8 -7 -5 -4 -2 -2 -2 -1 -0 0 -0 -1 0 1 2 2 2 3 4 3 4 5 5 5 4 5 4 3 3 2 2 2 1 1 1 0
-9 -10 -11 -11 -10 -9 -9 -9 -8 -6 -6 -5 -3 -3 -2 -1 -0 0 0 -0 -0 1 2 2 2 2 2 2 3 4 5 5 4 4 3 3 2 2 2 1 1 1 0 -0
-9 -9 -9 -10 -9 -8 -9 -9 -7 -7 -5 -5 -4 -2 -2 -1 -0 0 -0 0 0 1 1 0 1 2 2 2 3 4 4 4 4 3 2 2 2 2 1 1 1 0 -0 -1
-9 -9 -9 -9 -9 -9 -8 -6 -6 -6 -5 -5 -5 -2 -2 -0 -0 -0 -0 0 0 1 0 -0 -0 1 2 2 1 3 4 3 3 3 2 2 2 1 1 1 0 -0 -1 -1
-9 -9 -9 -9 -8 -8 -8 -6 -5 -4 -5 -5 -5 -3 -2 -2 -1 -1 -1 -0 -0 -1 -1 -1 0 0 0 1 2 1 3 3 3 2 2 2 1 1 0 -0 -1 -1 -2 -2
-9 -9 -8 -8 -8 -7 -6 -5 -4 -4 -4 -5 -4 -3 -2 -1 -2 -2 -1 -1 -1 -1 -1 -1 -0 -0 -1 1 1 2 2 2 2 2 2 1 1 -0 -1 -1 -1 -2 -3 -4
-8 -7 -6 -6 -5 -6 -6 -5 -4 -4 -4 -4 -3 -2 -2 -2 -2 -2 -2 -2 -2 -2 -1 -0 -0 0 1 -0 1 1 1 1 1 1 0 -0 -1 -1 -2 -2 -3 -3 -4 -5
-7 -5 -6 -5 -5 -5 -6 -4 -4 -3 -3 -3 -3 -2 -2 -2 -2 -2 -2 -0 0 -0 -0 -0 0 1 1 1 1 1 1 0 0 -1 -2 -2 -2 -3 -3 -4 -4 -5 -6 -7
-5 -4 -5 -5 -4 -4 -4 -4 -3 -2 -1 -2 -3 -3 -3 -3 -2 -2 -1 -1 -1 -2 -2 -3 -0 1 1 0 -0 -1 -1 -2 -2 -2 -3 -4 -4 -4 -5 -6 -7 -7 -8 -9
-5 -4 -4 -5 -5 -4 -3 -2 -0 -1 -2 -2 -3 -3 -3 -3 -3 -2 -2 -2 -2 -2 -3 -1 -0 0 -0 -1 -2 -2 -3 -3 -4 -4 -5 -5 -5 -6 -7 -7 -8 -9 -9 -9
-4 -4 -5 -6 -4 -3 -3 -2 -1 -2 -2 -2 -3 -3 -3 -2 -3 -2 -3 -3 -4 -4 -4 -3 -2 -2 -2 -3 -4 -3 -5 -6 -6 -6 -6 -7 -7 -8 -9 -9 -9 -10 -10 -11
-4 -6 -6 -6 -5 -4 -3 -3 -3 -2 -3 -4 -4 -4 -4 -4 -4 -5 -5 -6 -6 -6 -6 -5 -4 -4 -4 -4 -5 -6 -7 -7 -7 -7 -8 -8 -9 -9 -9 -10 -10 -11 -12 -12
-6 -7 -6 -6 -5 -5 -5 -5 -5 -4 -4 -4 -4 -4 -5 -5 -5 -6 -6 -7 -7 -6 -6 -6 -6 -6 -6 -6 -7 -8 -8 -8 -9 -9 -9 -9 -9 -10 -10 -11 -12 -12 -12 -12

GFSNW_700_temp_042.txt.gz
Temp
-8 -7 -8 -8 -8 -8 -9 -5 -3 -2 -1 -4 -3 -4 -4 -2 -0 2 2 2 4 4 5 5 5 5 5 6 6 6 6 6 6 6 6 6 6 6 5 6 4 4 4 5
-9 -7 -8 -8 -8 -8 -9 -9 -6 -5 -3 -5 -1 -3 -4 -3 1 1 1 2 3 3 4 5 5 5 5 6 6 6 6 5 5 5 6 6 5 6 5 5 5 5 2 5
-8 -8 -8 -9 -9 -8 -9 -8 -8 -6 -6 -1 -1 -2 -4 -3 0 -0 1 1 2 3 4 4 5 5 6 6 6 6 6 6 6 5 6 6 6 6 6 6 5 6 6 6
-8 -8 -8 -9 -9 -8 -10 -9 -8 -6 -6 -2 -2 -3 -3 -1 0 -1 0 1 2 3 3 4 5 5 6 6 6 6 6 6 6 6 6 6 6 6 6 6 6 6 6 6
-8 -8 -8 -9 -9 -9 -10 -8 -8 -7 -4 -1 -3 -5 -5 -2 1 -1 -0 -0 3 3 3 3 4 4 6 6 6 6 6 5 6 6 6 6 6 6 6 6 6 5 5 5
-8 -8 -8 -9 -9 -9 -10 -8 -8 -7 -6 -4 -4 -2 -3 -2 0 -0 -1 2 2 2 4 4 3 3 4 4 5 6 6 6 6 6 6 5 5 6 6 6 6 6 5 5
-8 -8 -9 -9 -9 -9 -8 -8 -8 -8 -7 -6 -1 -3 -4 -3 1 1 1 1 1 2 2 2 3 4 4 5 5 5 6 6 5 5 5 -0 5 5 5 5 5 5 5 5
-8 -8 -9 -9 -9 -9 -9 -8 -8 -7 -7 -5 -5 -6 -5 -4 -1 -0 -0 1 1 0 1 1 2 3 4 4 5 5 5 6 5 5 4 5 5 4 5 4 4 4 4 5
-8 -8 -9 -9 -9 -9 -9 -9 -8 -8 -6 -6 -5 -6 -5 -4 -1 -1 -0 -1 -0 0 0 0 0 2 4 4 4 5 5 5 5 4 3 -2 5 5 4 4 4 4 4 5
-8 -9 -9 -9 -9 -9 -9 -9 -8 -7 -6 -5 -5 -5 -5 -5 -2 -1 -0 0 -0 -1 -1 -0 0 1 3 4 4 5 4 5 4 4 4 4 4 4 4 3 4 4 4 4
-9 -9 -10 -10 -10 -10 -9 -9 -8 -8 -7 -5 -4 -5 -4 -4 -3 -1 -1 -2 -1 -1 -1 -1 -1 1 3 3 5 5 5 4 3 3 3 2 4 3 3 4 4 4 4 4
-9 -9 -10 -10 -10 -10 -10 -9 -8 -8 -8 -7 -5 -5 -5 -4 -3 -1 -1 1 0 1 -1 -1 0 1 3 4 4 4 4 4 4 4 4 4 4 4 3 3 3 3 3 3
-10 -10 -10 -11 -11 -11 -11 -9 -8 -8 -8 -6 -5 -4 -4 -3 -3 -2 -2 -2 -1 -0 1 0 1 2 2 4 4 4 4 4 4 4 4 4 4 3 3 3 3 3 3 2
-11 -11 -11 -11 -11 -11 -10 -9 -8 -8 -8 -7 -5 -5 -4 -3 -2 -1 -2 -2 -1 -1 -0 1 2 2 2 3 4 4 4 4 4 4 4 4 4 4 3 3 3 2 2 2
-12 -12 -12 -11 -12 -12 -11 -10 -9 -8 -7 -7 -5 -5 -3 -3 -2 -2 -2 -2 -1 -1 -1 0 2 2 2 2 3 3 4 4 4 5 5 5 4 4 3 3 2 2 2 1
-12 -12 -11 -11 -12 -12 -11 -10 -9 -8 -7 -6 -5 -4 -3 -3 -1 -1 -1 -2 -2 -2 -0 -0 0 1 1 1 2 3 3 4 4 4 5 4 4 3 3 2 2 1 1 1
-11 -11 -11 -11 -11 -11 -11 -10 -8 -8 -7 -7 -6 -4 -3 -2 -2 -1 -2 -1 -1 -1 -1 -1 -0 0 1 -0 1 2 3 3 3 4 4 4 3 3 2 2 1 1 1 0
-11 -11 -11 -11 -11 -11 -10 -8 -7 -8 -7 -7 -6 -4 -2 -2 -1 -2 -1 -1 -1 -1 -1 -1 -1 -0 0 0 1 2 3 3 3 3 3 3 3 2 2 2 1 1 1 0
-11 -11 -11 -10 -10 -10 -9 -9 -7 -8 -7 -7 -5 -4 -3 -3 -2 -1 -1 -1 -1 -2 -1 -1 -1 -1 0 1 1 2 2 2 2 2 2 2 2 2 2 1 1 1 0 -1
-10 -10 -9 -9 -9 -9 -8 -7 -7 -7 -6 -6 -4 -4 -3 -2 -2 -1 -1 -1 -2 -2 -1 -1 -1 -1 -1 0 0 2 0 1 1 0 -0 2 2 2 2 1 0 -1 -2 -3
-8 -8 -8 -8 -8 -7 -7 -6 -5 -5 -5 -5 -5 -4 -4 -3 -2 -2 -2 -2 -2 -1 -1 -2 -1 -1 -0 -1 -1 -1 -1 -1 -0 1 1 1 1 0 -0 -1 -2 -2 -2 -3
-7 -7 -7 -8 -8 -6 -5 -5 -4 -3 -3 -3 -3 -2 -3 -3 -3 -2 -3 -2 -2 -3 -2 -2 -1 -1 0 -1 -2 -1 -1 -2 -1 -0 -0 0 -0 -2 -2 -3 -3 -4 -5 -5
-6 -6 -6 -7 -7 -6 -6 -5 -3 -4 -4 -3 -3 -3 -4 -3 -3 -2 -3 -2 -2 -3 -2 -2 -2 -2 -2 -0 -1 -2 -2 -2 -2 -2 -2 -3 -3 -3 -4 -4 -5 -6 -7 -6
-6 -5 -5 -5 -5 -5 -5 -5 -4 -4 -4 -3 -4 -3 -3 -3 -3 -3 -2 -3 -3 -3 -3 -3 -3 -3 -3 -3 -3 -4 -3 -3 -3 -3 -4 -4 -4 -5 -6 -7 -7 -7 -7 -7
-5 -5 -5 -7 -6 -6 -6 -5 -5 -5 -5 -4 -4 -3 -3 -3 -3 -3 -4 -4 -5 -5 -6 -6 -5 -5 -5 -5 -5 -4 -4 -4 -4 -5 -5 -6 -7 -7 -8 -8 -8 -9 -9 -10
-6 -6 -7 -7 -7 -6 -6 -6 -5 -5 -5 -4 -4 -3 -4 -4 -5 -5 -6 -6 -7 -7 -7 -7 -6 -6 -6 -6 -6 -5 -6 -6 -6 -6 -7 -8 -8 -9 -9 -9 -10 -10 -10 -10
-8 -8 -7 -6 -6 -6 -6 -6 -6 -5 -4 -4 -4 -4 -6 -6 -6 -8 -8 -9 -8 -8 -7 -7 -7 -7 -7 -7 -7 -7 -8 -8 -8 -9 -9 -9 -10 -10 -10 -10 -11 -11 -11 -12

GFSNW_700_temp_045.txt.gz
Temp
-8 -8 -8 -9 -8 -8 -8 -8 -7 -7 -7 -6 -5 -2 -2 -2 -1 -0 1 1 2 3 4 4 4 5 5 5 5 5 5 5 5 5 6 6 6 6 5 5 4 4 3 5
-8 -8 -8 -8 -9 -9 -8 -8 -7 -8 -7 -6 -4 -1 -2 -2 -1 -0 1 1 1 2 3 3 4 5 5 5 5 5 5 5 5 5 5 5 5 6 6 6 5 5 4 5
-8 -8 -8 -8 -8 -9 -9 -9 -9 -8 -7 -5 -3 -5 -5 -5 -2 -0 -0 1 1 2 3 3 4 5 5 5 5 5 5 5 5 5 5 5 6 6 6 5 5 5 5 6
-8 -8 -8 -8 -8 -9 -9 -9 -9 -8 -7 -7 -4 -5 -4 -3 -3 -1 -1 0 1 1 2 2 4 5 5 5 5 5 5 5 5 6 6 6 6 6 6 6 6 5 6 6
-8 -8 -8 -8 -8 -10 -9 -9 -8 -8 -5 -3 -7 -6 -6 -3 -2 -0 0 0 1 2 2 3 3 3 3 4 5 5 5 5 5 5 5 5 6 6 6 6 6 5 5 6
-9 -8 -8 -8 -8 -10 -9 -8 -7 -7 -6 -6 -7 -7 -6 -5 -3 -1 -0 1 2 2 3 3 2 2 3 2 3 4 5 5 5 5 5 5 4 6 6 6 6 6 6 6
-9 -8 -8 -8 -8 -9 -8 -8 -8 -8 -7 -7 -3 -6 -6 -6 -2 -0 -1 -0 1 1 2 1 2 2 2 3 3 3 4 4 4 5 4 2 6 6 6 5 5 5 5 5
-9 -8 -8 -8 -8 -9 -9 -8 -8 -8 -8 -7 -5 -6 -7 -6 -5 -2 -2 -1 0 0 1 1 1 2 2 3 3 4 4 4 4 4 3 5 5 5 5 5 5 5 5 4
-9 -8 -8 -8 -8 -9 -9 -8 -9 -8 -8 -7 -6 -6 -6 -6 -5 -4 -3 -2 -2 -1 -1 -1 -1 1 1 3 3 4 4 4 4 4 4 2 5 5 5 5 4 5 5 4
-8 -8 -8 -8 -8 -9 -9 -9 -9 -8 -8 -7 -7 -6 -6 -6 -5 -4 -3 -2 -2 -1 -2 -2 -1 -0 1 2 3 4 4 3 3 4 4 5 5 5 4 4 5 4 4 4
-8 -8 -8 -8 -8 -9 -10 -9 -8 -9 -8 -7 -7 -6 -6 -6 -5 -4 -4 -4 -2 -1 -2 -3 -1 -0 1 2 2 3 4 3 3 4 3 3 5 5 4 5 4 3 3 4
-8 -8 -8 -8 -9 -10 -10 -10 -9 -9 -8 -7 -6 -6 -6 -6 -5 -4 -3 -1 -0 -0 -2 -2 -1 -0 1 1 1 2 3 4 5 5 5 5 5 5 5 4 4 3 3 3
-8 -8 -9 -9 -9 -10 -9 -9 -9 -9 -8 -7 -7 -6 -5 -5 -5 -3 -3 -2 -1 -1 -0 -1 -0 -0 0 2 2 2 3 4 4 5 5 5 5 5 5 4 4 3 3 3
-8 -9 -9 -9 -9 -10 -10 -10 -9 -10 -9 -8 -7 -7 -5 -5 -5 -4 -4 -3 -2 -1 -1 -1 -1 -0 1 1 2 3 3 4 4 5 5 4 5 5 5 4 4 3 2 2
-9 -9 -9 -9 -10 -10 -11 -11 -10 -9 -9 -7 -7 -7 -5 -5 -4 -4 -3 -3 -3 -2 -2 -2 -2 -1 1 1 2 2 3 3 4 5 5 4 5 4 4 4 3 3 3 2
-10 -10 -10 -10 -10 -10 -11 -11 -11 -8 -9 -8 -6 -6 -6 -5 -4 -4 -3 -3 -2 -2 -2 -2 -2 -1 0 1 1 2 2 3 3 3 4 3 4 4 4 3 3 3 2 2
-10 -10 -10 -10 -10 -11 -12 -11 -8 -8 -9 -8 -7 -6 -4 -6 -4 -3 -3 -3 -3 -3 -2 -2 -2 -1 -1 -0 1 1 2 3 2 3 3 3 3 4 3 3 2 2 2 1
-11 -11 -11 -11 -11 -12 -11 -9 -9 -8 -8 -8 -6 -5 -5 -5 -4 -4 -2 -2 -2 -2 -2 -2 -1 -1 -1 -1 -0 0 1 2 2 2 1 2 3 3 3 3 2 2 1 1
-11 -11 -11 -11 -11 -11 -9 -9 -8 -9 -7 -7 -6 -5 -4 -4 -3 -3 -3 -2 -3 -3 -2 -2 -2 -2 -1 -1 -1 0 1 2 2 1 0 2 2 2 1 1 2 2 1 1
-11 -11 -11 -11 -10 -10 -10 -9 -8 -8 -8 -7 -7 -6 -4 -3 -3 -3 -2 -2 -2 -3 -3 -2 -2 -2 -2 -1 -1 0 1 1 1 1 1 1 1 -0 1 1 1 1 0 0
-10 -10 -9 -10 -10 -10 -9 -9 -8 -7 -7 -6 -6 -6 -4 -4 -3 -2 -2 -2 -2 -2 -2 -2 -2 -2 -2 -2 -1 -1 -1 0 1 0 -0 -1 -1 -1 -1 -1 -1 -1 -1 -2
-9 -9 -9 -9 -9 -8 -8 -8 -7 -6 -5 -5 -5 -5 -5 -4 -4 -3 -3 -3 -2 -2 -2 -2 -2 -2 -2 -2 -1 -1 -1 -1 -1 -2 -2 -2 -3 -2 -2 -2 -2 -2 -3 -3
-9 -9 -8 -8 -7 -6 -6 -6 -6 -5 -5 -5 -4 -4 -3 -4 -3 -3 -3 -3 -3 -3 -3 -3 -4 -4 -3 -2 -2 -1 -1 -2 -2 -3 -2 -2 -3 -2 -3 -3 -3 -4 -4 -5
-7 -7 -7 -6 -6 -6 -6 -6 -5 -5 -4 -4 -4 -4 -4 -3 -4 -3 -3 -3 -3 -3 -4 -6 -5 -3 -3 -3 -4 -4 -3 -3 -2 -3 -3 -3 -3 -4 -5 -5 -5 -5 -6 -6
-7 -7 -7 -8 -8 -7 -7 -6 -5 -5 -4 -4 -4 -4 -3 -3 -4 -4 -4 -4 -6 -7 -8 -7 -6 -6 -5 -5 -5 -4 -4 -4 -4 -5 -5 -5 -5 -6 -6 -7 -7 -7 -8 -9
-7 -8 -9 -8 -7 -7 -6 -5 -5 -5 -4 -4 -4 -4 -4 -5 -5 -6 -7 -7 -9 -9 -8 -7 -7 -7 -7 -6 -6 -6 -6 -6 -6 -6 -6 -7 -7 -8 -8 -9 -9 -9 -10 -11
-8 -9 -8 -7 -7 -6 -6 -6 -5 -5 -4 -4 -4 -4 -6 -7 -7 -9 -10 -11 -10 -9 -8 -8 -8 -8 -8 -7 -7 -7 -7 -8 -8 -8 -9 -9 -9 -10 -10 -10 -10 -10 -11 -11

GFSNW_700_temp_048.txt.gz
Temp
-8 -7 -8 -8 -8 -8 -9 -9 -8 -7 -8 -8 -6 -6 -5 -3 -2 -1 1 1 1 3 2 3 3 4 4 5 4 4 4 5 5 5 5 6 6 6 6 6 7 6 6 7
-8 -8 -8 -8 -8 -8 -8 -8 -9 -8 -8 -8 -6 -2 -6 -4 -2 -1 -1 0 2 2 2 3 3 4 4 5 5 4 4 4 5 5 5 5 5 5 6 5 6 6 6 7
-8 -8 -8 -8 -8 -8 -8 -9 -8 -8 -8 -7 -5 -1 -6 -5 -4 -2 -1 -0 1 2 2 3 4 4 4 4 5 5 5 5 5 6 6 6 5 5 5 5 5 6 6 7
-8 -8 -8 -8 -8 -8 -8 -9 -8 -7 -8 -7 -7 -4 -4 -5 -4 -3 -2 -1 0 1 2 2 3 4 4 4 5 5 4 5 5 5 6 6 6 6 6 5 6 6 6 6
-9 -8 -8 -8 -9 -8 -8 -9 -8 -8 -7 -6 -7 -6 -5 -4 -4 -3 -3 -1 -1 1 1 2 2 3 3 3 4 4 4 5 5 5 5 5 5 6 6 5 6 6 6 6
-9 -9 -9 -9 -9 -8 -9 -8 -8 -8 -7 -7 -8 -6 -5 -5 -4 -3 -3 -2 -1 0 3 2 1 2 2 1 2 3 4 4 4 5 5 4 4 5 5 5 6 6 6 6
-9 -9 -9 -9 -9 -8 -8 -7 -7 -8 -7 -7 -6 -6 -6 -5 -4 -4 -3 -3 -2 -1 1 2 0 -1 -1 1 2 2 2 4 4 5 4 2 6 6 6 6 6 6 6 5
-9 -9 -9 -9 -9 -8 -8 -7 -7 -8 -7 -7 -7 -7 -7 -6 -5 -4 -4 -3 -2 -2 0 0 -1 -0 0 1 2 2 2 2 3 3 3 5 5 6 6 6 6 6 5 5
-9 -9 -9 -10 -9 -8 -8 -8 -8 -7 -7 -7 -7 -7 -6 -6 -5 -5 -4 -4 -3 -1 -1 -2 -1 1 1 1 2 3 3 3 2 3 4 3 5 5 6 6 6 5 5 5
-9 -9 -9 -9 -8 -8 -8 -8 -8 -8 -8 -7 -7 -7 -6 -7 -6 -4 -5 -4 -3 -3 -3 -2 -1 -0 1 0 1 2 3 3 1 2 3 5 5 5 5 5 6 5 5 4
-9 -9 -9 -8 -8 -8 -8 -8 -8 -8 -8 -8 -7 -7 -7 -6 -6 -5 -5 -4 -3 -3 -3 -3 -2 -1 0 1 1 2 3 3 2 2 2 3 5 5 5 6 5 5 5 4
-9 -9 -8 -8 -8 -8 -8 -9 -9 -9 -8 -7 -7 -7 -6 -6 -6 -5 -5 -1 -2 -2 -3 -3 -2 -1 0 1 1 2 1 2 3 4 4 5 5 6 5 5 5 5 4 4
-8 -8 -8 -8 -8 -8 -8 -9 -9 -8 -8 -7 -8 -8 -7 -6 -6 -5 -4 -3 -2 -1 -1 -1 -1 -0 -0 1 1 2 2 4 3 3 4 5 5 5 5 5 5 4 4 4
-8 -8 -8 -8 -8 -9 -8 -9 -9 -9 -8 -9 -9 -8 -7 -6 -6 -5 -5 -4 -2 -2 -2 -1 -2 -1 -0 0 1 1 2 3 3 3 3 4 5 5 5 5 5 4 4 4
-8 -8 -8 -9 -9 -9 -9 -9 -9 -9 -9 -9 -9 -9 -7 -6 -6 -5 -5 -4 -3 -3 -2 -1 -2 -2 -1 -0 0 1 2 2 2 3 4 4 4 4 4 4 4 4 3 3
-9 -9 -9 -9 -9 -9 -9 -10 -9 -9 -9 -9 -8 -8 -8 -6 -6 -5 -5 -5 -4 -4 -3 -2 -2 -0 -1 -1 -0 1 1 2 2 2 3 3 3 4 4 4 4 4 3 3
-9 -9 -9 -9 -9 -9 -10 -10 -9 -9 -8 -9 -8 -7 -6 -6 -4 -5 -5 -4 -4 -4 -4 -3 -3 -2 -2 -1 -1 0 0 1 2 2 2 3 3 3 3 3 2 3 3 3
-9 -9 -9 -10 -10 -10 -10 -9 -9 -8 -8 -9 -8 -6 -7 -7 -5 -5 -4 -4 -4 -4 -3 -3 -3 -2 -2 -2 -1 -1 -0 1 1 1 2 2 2 3 2 2 2 1 2 2
-10 -10 -10 -10 -10 -9 -10 -10 -9 -8 -9 -8 -8 -6 -5 -4 -5 -4 -4 -4 -3 -3 -3 -3 -3 -2 -2 -2 -1 -1 -0 0 0 1 1 2 2 2 2 1 2 2 2 2
-10 -11 -10 -10 -9 -9 -9 -9 -9 -8 -7 -7 -6 -7 -6 -6 -5 -4 -4 -3 -4 -3 -3 -3 -3 -3 -2 -2 -2 -1 -1 -1 0 1 1 2 1 1 2 1 1 1 0 1
-10 -10 -10 -9 -9 -9 -8 -8 -8 -8 -7 -7 -6 -6 -5 -4 -4 -4 -3 -3 -3 -3 -3 -3 -3 -3 -3 -3 -2 -2 -2 -1 -0 0 1 1 1 1 1 0 -0 -0 -1 -1
-10 -10 -10 -10 -9 -9 -8 -7 -7 -7 -7 -7 -5 -5 -5 -4 -4 -3 -3 -3 -3 -3 -3 -3 -3 -4 -3 -2 -2 -2 -2 -2 -2 -1 -1 -1 -1 -0 -0 -1 -1 -2 -2 -2
-9 -10 -10 -9 -8 -8 -7 -7 -7 -7 -6 -6 -5 -5 -5 -4 -4 -3 -3 -3 -3 -3 -3 -6 -7 -6 -4 -3 -3 -2 -2 -2 -2 -2 -2 -2 -2 -3 -3 -2 -3 -2 -3 -4
-8 -8 -8 -7 -7 -7 -7 -6 -6 -6 -6 -5 -5 -5 -5 -4 -4 -3 -3 -4 -3 -5 -6 -8 -7 -6 -6 -5 -4 -4 -4 -4 -3 -3 -3 -4 -3 -3 -3 -3 -4 -5 -6 -6
-8 -7 -7 -8 -7 -6 -6 -6 -6 -6 -5 -5 -5 -4 -4 -4 -4 -4 -4 -5 -7 -9 -10 -9 -8 -7 -6 -6 -6 -5 -5 -5 -5 -5 -5 -5 -5 -5 -5 -6 -6 -6 -7 -8
-7 -8 -8 -8 -7 -6 -6 -5 -6 -6 -6 -5 -4 -5 -4 -5 -6 -6 -8 -9 -12 -11 -10 -9 -8 -8 -7 -7 -7 -6 -7 -7 -7 -7 -7 -7 -7 -7 -7 -7 -8 -9 -9 -9
-8 -8 -8 -8 -7 -7 -6 -6 -6 -5 -5 -4 -4 -4 -6 -7 -8 -10 -11 -12 -11 -10 -10 -9 -9 -8 -8 -8 -8 -8 -8 -8 -8 -8 -9 -9 -9 -9 -10 -10 -10 -10 -10 -11